sat.trackr.live / text

‹ back to catalog

YAOGAN-43 01D

NORAD 60461 · 2024-148D

PAYLOAD ACTIVE UNKNOWN

§ Identity

Operator
Country
PRC
Launch date
2024-08-16
Launch site
XICLF
Launch vehicle
Mass (kg)
RCS (m²)

External: N2YO · Heavens-Above · Gunter

§ Orbital elements

Epoch: 2026-09-22T23:28:39.379584Z

Period
94.06 min
Inclination
35.0045°
Eccentricity
0.0001190
Mean motion
15.30978614 rev/d
Perigee alt
472.1 km
Apogee alt
473.7 km
Semi-major
6,851.0 km
B*
1.7917e-4
RAAN
246.4961°
Arg perigee
23.2581°
Mean anomaly
336.8190°
Rev number
11,727

§ Raw data

YAOGAN-43 01D1 60461U 24148D   26265.97823356  .00005466  00000+0  17917-3 0  99982 60461  35.0045 246.4961 0001190  23.2581 336.8190 15.30978614117272

JSON: /api/v1/satellites/60461 · /tle

For live sub-satellite position, see the globe view (requires WebGL).

§ Visibility from observer

Set your observer location to see the next 7 days of passes ≥ 10°. The values pass through the URL so the page stays shareable.

No JS? Fill the form by hand. The geolocation button needs JavaScript.